SUNDSVALL-HARNOSAND FLY current weather conditions

sailwx.info

Wind from 140 at 16 knots

Air temperature 4.0° C
Visibility: greater than 5.4 NM
Dewpoint -2.0° C

Last reported at 2014-Oct-22 20:20 UTC.
Time now 2014-Oct-22 21:48 UTC

Location: N 62°32' E 017°27'.
View on Google Maps.

See reports from other nearby stations

  
Tides and Currents Weather Stations Pressure Air Temp Water Temp Dewpoint Dewpoint Depression Visibility Wind Speed Wind Dir Waves Ship Positions
date/time (UTC)wind fromknots sea level pressurealtimeterstation pressurevisibilityair tempwater tempwave heightnotes
2014-Oct-22 20:20 140 16 5.4 4.0
2014-Oct-22 19:50 140 14 5.4 4.0
2014-Oct-22 19:20 130 13 5.4 4.0
2014-Oct-22 18:50 120 11 5.4 4.0
2014-Oct-22 18:20 120 11 5.4 4.0
2014-Oct-22 17:50 120 10 5.4 3.0
2014-Oct-22 17:20 110 9 5.4 3.0
2014-Oct-22 16:50 120 11 5.4 3.0
2014-Oct-22 16:20 120 9 5.4 3.0
2014-Oct-22 15:50 100 7 5.4 2.0 Light rain snow.
2014-Oct-22 15:20 120 10 5.4 3.0
2014-Oct-22 14:50 130 14 5.4 4.0
2014-Oct-22 14:20 110 9 5.4 3.0
2014-Oct-22 13:50 110 6 5.4 3.0
2014-Oct-22 13:20 130 12 4.3 2.0 Light rain.
2014-Oct-22 12:50 120 12 5.4 3.0
2014-Oct-22 12:20 120 11 5.4 3.0
2014-Oct-22 11:50 110 10 5.4 3.0
2014-Oct-22 11:20 110 10 5.4 3.0
2014-Oct-22 10:50 120 11 5.4 3.0
2014-Oct-22 10:20 060 4 5.4 2.0 Light drizzle.
2014-Oct-22 09:50 070 3 4.9 2.0 Light rain.
2014-Oct-22 09:20 080 6 4.3 1.0 Light rain.
2014-Oct-22 08:50 090 5 3.2 2.0 Light rain snow.
2014-Oct-22 08:20 080 3 5.4 2.0 Light rain.
2014-Oct-22 07:50 060 6 4.9 2.0 Rain showers.
2014-Oct-22 07:20 080 8 5.4 2.0 Light snow grains.
2014-Oct-22 06:50 070 4 5.4 1.0
2014-Oct-22 06:20 060 9 4.3 1.0 Snow grains.
2014-Oct-22 05:50 060 5 5.4 1.0
2014-Oct-22 05:20 070 6 2.1 1.0 Light snow grains.
2014-Oct-22 04:50 060 6 2.7 1.0 Light snow.
2014-Oct-22 04:20 050 5 5.4 1.0 Snow.
2014-Oct-22 03:50 050 5 2.5 1.0 Light snow.
2014-Oct-22 03:20 060 7 5.4 1.0
2014-Oct-22 02:50 070 8 5.4 1.0
2014-Oct-22 02:20 070 6 5.4 1.0
2014-Oct-22 01:50 080 7 5.4 1.0
2014-Oct-22 01:20 080 9 1.6 1.0 Light snow.
2014-Oct-22 00:50 080 9 5.4 1.0
2014-Oct-22 00:20 100 11 5.4 1.0 Precipitation.
2014-Oct-21 23:50 110 12 2.7 1.0 Snow grains.
2014-Oct-21 23:20 090 7 5.4 2.0
2014-Oct-21 22:50 100 6 5.4 2.0
2014-Oct-21 22:20 090 8 5.4 2.0
2014-Oct-21 21:50 090 10 5.4 2.0 Precipitation.
2014-Oct-21 21:20 090 10 5.4 1.0
2014-Oct-21 20:50 100 6 5.4 1.0 Snow grains.
2014-Oct-21 20:20 080 10 4.9 2.0 Snow grains.
2014-Oct-21 19:50 080 7 5.4 2.0
2014-Oct-21 19:20 080 8 5.4 2.0
2014-Oct-21 18:50 090 9 5.4 2.0
2014-Oct-21 18:20 060 8 5.4 2.0
2014-Oct-21 17:50 070 7 5.4 2.0
2014-Oct-21 17:20 070 6 5.4 2.0
2014-Oct-21 16:50 070 7 5.4 2.0
2014-Oct-21 16:20 070 8 5.4 2.0
2014-Oct-21 15:50 070 10 2.2 2.0 Mist.
2014-Oct-21 15:20 080 7 5.4 2.0
2014-Oct-21 14:50 080 8 5.4 2.0 Drizzle.
2014-Oct-21 14:20 080 7 5.4 3.0 Drizzle.
2014-Oct-21 13:50 090 10 5.4 3.0 Light rain.
2014-Oct-21 13:20 090 8 5.4 3.0 Drizzle.
2014-Oct-21 12:50 090 8 5.4 3.0 Light rain.
2014-Oct-21 12:20 100 8 5.4 3.0 Light rain snow.
2014-Oct-21 11:50 090 7 5.4 4.0 Light rain.
2014-Oct-21 11:20 090 7 5.4 4.0
2014-Oct-21 10:50 060 6 5.4 3.0
2014-Oct-21 10:20 070 8 5.4 3.0
2014-Oct-21 09:50 060 6 5.4 3.0
2014-Oct-21 09:20 070 6 5.4 3.0 Light rain.
2014-Oct-21 08:50 090 7 5.4 3.0
2014-Oct-21 08:20 090 7 5.4 3.0
2014-Oct-21 07:50 090 5 5.4 3.0
2014-Oct-21 07:20 050 4 5.4 3.0
2014-Oct-21 06:50 5.4 3.0
2014-Oct-21 06:20 050 6 5.4 3.0 Light rain.
2014-Oct-21 05:50 070 4 5.4 3.0 Drizzle.
2014-Oct-21 05:20 070 4 5.4 3.0
2014-Oct-21 04:50 060 4 5.4 3.0
2014-Oct-21 04:20 050 3 5.4 3.0 Drizzle.
2014-Oct-21 03:50 050 6 5.4 3.0 Light rain.
2014-Oct-21 03:20 030 3 5.4 3.0
2014-Oct-21 02:50 020 4 5.4 3.0 Light rain.
2014-Oct-21 02:20 5.4 3.0
2014-Oct-21 01:50 350 2 5.4 3.0
2014-Oct-21 01:20 5.4 3.0
2014-Oct-21 00:50 310 5 5.4 3.0
2014-Oct-21 00:20 320 5 5.4 3.0
2014-Oct-20 23:50 300 3 5.4 3.0
2014-Oct-20 23:20 300 5 5.4 3.0
2014-Oct-20 22:50 320 5 5.4 3.0
2014-Oct-20 22:20 330 5 5.4 3.0
2014-Oct-20 21:50 310 6 5.4 3.0
2014-Oct-20 21:20 300 5 5.4 3.0